Regional Weather Roundup
Issued by NWS

Home | Current Version | Previous Version | Text Only | Print | Product List | Glossary On
Versions: 1 2 3 4 5 6 7 8 9 10 11 12 13 14 15 16 17 18 19 20 21 22 23 24 25 26 27 28
000
ASUS45 KBOI 112010
RWRID

IDAHO REGIONAL WEATHER ROUNDUP
NATIONAL WEATHER SERVICE BOISE ID
100 PM MST MON DEC 11 2017

NOTE: "FAIR" INDICATES FEW OR NO CLOUDS BELOW 12000 FEET
WITH NO SIGNIFICANT WEATHER AND/OR OBSTRUCTIONS TO VISIBILITY

IDZ012-014-112100-
SOUTHWEST IDAHO


CITY           SKY/WX    TMP DP  RH WIND       PRES   REMARKS
BOISE          CLOUDY    25  20  81 S3        30.67F
CALDWELL       NOT AVBL
MOUNTAIN HOME  CLOUDY    23  23 100 VRB2      30.65F FOG
$$

IDZ016-017-112100-
SOUTHCENTRAL IDAHO


CITY           SKY/WX    TMP DP  RH WIND       PRES   REMARKS
BURLEY         SUNNY     29  24  82 CALM      30.55F
JEROME         MOSUNNY   29  22  75 CALM      30.58F
TWIN FALLS     CLOUDY    27  23  85 W3        30.57F FOG
$$

IDZ019>023-112100-
SOUTHEAST IDAHO


CITY           SKY/WX    TMP DP  RH WIND       PRES   REMARKS
IDAHO FALLS    CLOUDY    27  22  81 VRB6      30.58F WCI  20
POCATELLO      CLOUDY    30  19  63 E5        30.58F WCI  25
REXBURG        CLOUDY    29  16  58 CALM      30.57F
$$

IDZ006-010-011-018-031-032-112100-
CENTRAL IDAHO MOUNTAINS


CITY           SKY/WX    TMP DP  RH WIND       PRES   REMARKS
MCCALL         SUNNY     22  19  89 SE3       30.52F
HAILEY         SUNNY     43  16  33 SE6       30.55F
STANLEY          N/A     17  10  74 CALM      30.60F
SALMON         CLOUDY    18  13  80 CALM      30.73F
CHALLIS        SUNNY     24  13  62 CALM      30.62F
$$

IDZ002-004-006-007-026-112100-
NORTHERN IDAHO


CITY           SKY/WX    TMP DP  RH WIND       PRES   REMARKS
LEWISTON       CLOUDY    29  25  85 CALM      30.63F
LOWELL           N/A     35  27  72 VRB3      30.61F
COEUR D`ALENE  MOSUNNY   34  24  67 NE9       30.58F WCI  27
MULLAN PASS    SUNNY     44   4  19 S5        30.48F
$$




USA.gov is the U.S. government's official web portal to all federal, state and local government web resources and services.